Preview of NWS' New Version of Forecast
This preview is not operational and should not be used for support decisions.

Regional Weather Roundup (RWR)

Issued by Gray - Portland, ME (GYX)

                            
000
ASUS41 KGYX 241810
RWRGYX
WEATHER ROUNDUP FOR MAINE AND NEW HAMPSHIRE
NATIONAL WEATHER SERVICE GRAY ME
200 PM EDT MON JUN 24 2019

MEZ002-005-006-010-012-015-018-020-021-024-026-027-029-241900-
MAINE
  
CITY           SKY/WX    TMP DP  RH WIND       PRES   REMARKS
PORTLAND       FAIR      73  50  44 SE12G21   29.83S                  
6HR MIN TEMP:  69; 6HR MAX TEMP:  77;                                

SANFORD        FAIR      74  53  48 SE9       29.83S                  
BAR HARBOR     FAIR      72  44  36 N9G21     29.82F                  
WISCASSET      FAIR      73  44  35 S7        29.84S                  
6HR MIN TEMP:  67; 6HR MAX TEMP:  77;                                

ROCKLAND       FAIR      68  43  40 S12       29.84S                  
FRYEBURG       FAIR      80  42  25 VRB6      29.83S                  
6HR MIN TEMP:  66; 6HR MAX TEMP:  82;                                

LEWISTONAUBURN FAIR      77  42  28 NW9       29.82F                  
AUGUSTA        FAIR      75  44  33 NW6       29.83F                  
6HR MIN TEMP:  63; 6HR MAX TEMP:  76;                                

WATERVILLE     FAIR      74  43  32 N6        29.80F                  
BANGOR         FAIR      74  36  25 NW13      29.82F                  
6HR MIN TEMP:  61; 6HR MAX TEMP:  75;                                

GREENVILLE       N/A     68  37  32 NW12G18   29.83F                  
6HR MIN TEMP:  56; 6HR MAX TEMP:  68;                                

MILLINOCKET    FAIR      72  40  31 NW8       29.83F                  
6HR MIN TEMP:  60; 6HR MAX TEMP:  72;                                

HOULTON        FAIR      71  40  32 MISG      29.78F                  
6HR MIN TEMP:  57; 6HR MAX TEMP:  71;                                

PRESQUE ISLE   FAIR      69  41  36 N16       29.80F                  
6HR MIN TEMP:  56; 6HR MAX TEMP:  69;                                

FRENCHVILLE    FAIR      68  37  32 NW16G25   29.81S                  
6HR MIN TEMP:  56; 6HR MAX TEMP:  68;                                

CARIBOU        FAIR      71  40  32 NW10G17   29.79S                  
6HR MIN TEMP:  56; 6HR MAX TEMP:  71;                                

$$

NHZ002-005-008-009-011-012-014-241900-
NEW HAMPSHIRE
  
CITY           SKY/WX    TMP DP  RH WIND       PRES   REMARKS
PORTSMOUTH     PTSUNNY   76  49  38 E13       29.81R                  
ROCHESTER      FAIR      81  44  27 NW14      29.82S                  
6HR MIN TEMP:  69; 6HR MAX TEMP:  82;                                

NASHUA         FAIR      84  48  28 W9G17     29.83S                  
MANCHESTER     PTSUNNY   84  43  23 VRB5      29.81F                  
6HR MIN TEMP:  70; 6HR MAX TEMP:  84;                                

CONCORD        FAIR      83  46  27 N7        29.83F                  
6HR MIN TEMP:  66; 6HR MAX TEMP:  83;                                

LACONIA        FAIR      79  43  27 NW9       29.84F                  
PLYMOUTH       FAIR      79  43  27 W8        29.84S                  
BERLIN         FAIR      77  37  23 NW7       29.85S                  
6HR MIN TEMP:  57; 6HR MAX TEMP:  78;                                

WHITEFIELD     FAIR      75  38  26 CALM      29.86F                  
6HR MIN TEMP:  58; 6HR MAX TEMP:  76;                                

JAFFREY        FAIR      81  48  31 W9        29.87S                  
6HR MIN TEMP:  67; 6HR MAX TEMP:  81;                                

KEENE          PTSUNNY   81  53  37 VRB5      29.85S                  
LEBANON        FAIR      83  48  29 N5        29.84F                  
6HR MIN TEMP:  62; 6HR MAX TEMP:  84;                                

MT WASHINGTON  PTSUNNY   50  30  46 NW29G37     N/A                   
6HR MIN TEMP:  41; 6HR MAX TEMP:  49;                                

$$

VTZ005-007-008-241900-
VERMONT
  
CITY           SKY/WX    TMP DP  RH WIND       PRES   REMARKS
ST JOHNSBURY     N/A     77  41  27 MISG      29.83F                  
MONTPELIER     FAIR      74  46  36 CALM      29.91F                  
BURLINGTON     PTSUNNY   78  47  33 NE7       29.86S                  
$$

MAZ007-012-024-CTZ003-RIZ002-NYZ038-NYZ072-241900-
SOUTHERN NEW ENGLAND AND NY
  
CITY           SKY/WX    TMP DP  RH WIND       PRES   REMARKS
BOSTON         FAIR      73  53  49 E14       29.83F                  
WORCESTER      FAIR      80  53  39 W12G18    29.87S                  
NANTUCKET      FAIR      79  56  45 CALM      29.85S                  
PROVIDENCE     PTSUNNY   85  54  34 NW12      29.83F                  
HARTFORD       PTSUNNY   87  51  28 NW7       29.83F                  
ALBANY         PTSUNNY   83  53  35 SW5       29.86F                  
NEW YORK CITY  PTSUNNY   85  51  31 S6        29.85F                  
$$

ANZ081-ANZ082-ANZ150-NHZ014-MEZ023>029-241900-
COASTAL MARINE OBSERVATIONS
  
STATION/POSITION TIME  TEMP    WIND        PRES    WAVE
                       AIR SEA DIR/SP/G            HT/PER
                 (UTC) (F)     (DEG/KT/KT) (MB)    (FT/S)
ISLE OF SHOALS   1700   64     140/ 14/ 14 1009.4F
JEFFREYS LEDGE   1738      61                N/A     1/ 8
CASHES LEDGE BUO 1750   57 56  120/  4/  6 1011.6F   1/ 7
GEORGES BANK BUO 1750   57 54   10/  2/  4 1010.6R   3/ 6
$$

.............KEY..............
   WCI - WIND CHILL
   TC  - TEMPERATURE IN CELSIUS
   VSB - VISIBILITY IN MILES
   HX  - HEAT INDEX
   FAIR- INDICATES FEW OR NO CLOUDS BELOW 12,000 FT, WITH NO 
         SIGNIFICANT WEATHER AND/OR OBSTRUCTIONS TO VISIBILITY.